[[{"header":{"parameterUnit":"m.s-1","parameterCategory":1,"la1":30.2991,"la2":30.254,"lo1":-89.0895,"lo2":-89.0444,"dy":0.0017,"dx":0.0017,"nx":28,"ny":28,"refTime":"2025-06-14T09:00:00:Z","depth":0,"parameterNumber":2,"parameterNumberName":"U-component_of_WINDS"},"data":[0,0,0,0,0,0,0,0,0,0,0,0,0,0,0,0,0,0,0,0,0,0,0,0,0,0,0,0,0,0,0,0,0,0,0,0,0,0,0,0,0,0,0,0,0,0,0,0,0,0,0,0,0,0,0,0,0,0,0.8119,0.812,0,0.8273,0.8275,0.8277,0.8355,0.8355,0.8355,0.8355,0.8515,0.8519,0.8523,0,0,0,0,0,0,0,0,0,0,0,0,0,0.7891,0.7895,0.8118,0.812,0.8122,0.8273,0.8275,0.8277,0.8355,0.8355,0.8355,0.8355,0.8514,0.8518,0.8524,0,0,0,0,0,0,0,0,0,0,0,0,0,0.8012,0.7896,0.8118,0.8179,0.8186,0.8273,0.8275,0.8278,0.8355,0.8355,0.8355,0.8355,0.8512,0.8518,0.8524,0.8562,0,0,0.8544,0.8546,0,0,0,0,0,0,0,0,0.8005,0.802,0.8168,0.8175,0.8183,0.8295,0.8254,0.8373,0.8355,0.8291,0.8355,0.8355,0.8442,0.8454,0.8483,0.8569,0.8576,0.8544,0.8548,0.8551,0.8552,0,0,0,0,0,0,0,0.7997,0.8014,0.818,0.817,0.8179,0.8199,0.8216,0.8277,0.8364,0.8297,0.8303,0.832,0.8446,0.8476,0.8487,0.8579,0.8544,0.855,0.8553,0.8556,0.8705,0.8705,0,0,0,0,0,0,0.7978,0.8007,0.8175,0.8184,0.8092,0.8203,0.8223,0.8259,0.8364,0.838,0.832,0.8323,0.8466,0.848,0.8493,0.8545,0.8551,0.8557,0.856,0.8704,0.8705,0.8705,0,0,0,0,0,0,0.7973,0.7993,0.8169,0.8097,0.8121,0.8207,0.8247,0.8262,0.8293,0.8381,0.8397,0.8335,0.8466,0.8484,0.8544,0.8551,0.8559,0.8565,0.8704,0.8704,0.8705,0.8647,0,0,0,0,0,0,0.7966,0.799,0.8005,0.8097,0.8125,0.8217,0.8248,0.8265,0.8303,0.8309,0.84,0.8415,0.8468,0.8534,0.855,0.856,0.857,0.8704,0.8704,0.8705,0.8649,0.8645,0.8642,0,0,0,0,0,0.7958,0.7983,0.8005,0.8025,0.8145,0.8217,0.8233,0.8293,0.8303,0.832,0.8376,0.8412,0.8547,0.854,0.8559,0.857,0.8704,0.8704,0.8705,0.865,0.8646,0.8642,0,0,0,0,0,0,0.789,0.7996,0.8022,0.8078,0.8138,0.823,0.8252,0.8287,0.8345,0.8348,0.8421,0.844,0.8494,0.8538,0.8528,0.8612,0.8629,0.8633,0.8581,0.8578,0.8575,0.8564,0.8575,0,0,0,0,0,0.7881,0.7931,0.8021,0.8061,0.809,0.8165,0.8199,0.824,0.8305,0.8331,0.8392,0.8454,0.8511,0.8547,0.8604,0.8655,0.8676,0.8673,0.8669,0.8666,0.8669,0.87,0.8699,0.8706,0.8706,0.8706,0,0,0.7864,0.7928,0.7955,0.8049,0.81,0.815,0.8186,0.8237,0.8275,0.8339,0.84,0.8446,0.8521,0.8576,0.8604,0.8615,0.8672,0.8667,0.8663,0.8668,0.87,0.8699,0.8699,0.8706,0.8706,0.8706,0,0,0.7859,0.7912,0.7952,0.8002,0.8079,0.8129,0.8138,0.8226,0.8259,0.8321,0.837,0.8416,0.8512,0.8563,0.8602,0.8615,0.865,0.8631,0.8615,0.8644,0.8643,0.8643,0.8648,0.8649,0.8634,0.8634,0.8634,0,0.7828,0.7904,0.7967,0.8016,0.8056,0.8116,0.8157,0.8203,0.8294,0.8321,0.8331,0.8453,0.8507,0.8576,0.8579,0.8608,0.8622,0.8622,0.8638,0.8639,0.864,0.8645,0.8647,0.8631,0.8631,0.8632,0.8632,0,0.7863,0.7915,0.7938,0.8025,0.8067,0.8111,0.8182,0.8217,0.8254,0.8303,0.8365,0.8432,0.8504,0.8523,0.856,0.8598,0.8602,0.8624,0.8643,0.8635,0.8642,0.8645,0.8627,0.8628,0.8629,0.863,0,0,0.7819,0.794,0.7948,0.7988,0.8077,0.8119,0.8166,0.8236,0.8265,0.8326,0.8368,0.8447,0.8469,0.8512,0.8556,0.8581,0.8587,0.8601,0.8604,0.8596,0.8633,0.8615,0.8617,0.8611,0.8612,0.8612,0.8627,0,0.7826,0.7913,0.7972,0.8036,0.8085,0.8142,0.8183,0.8243,0.829,0.8338,0.8391,0.8446,0.847,0.8497,0.8524,0.8581,0.8596,0.858,0.8651,0.8652,0.8631,0.862,0.8602,0.8613,0.863,0.863,0.863,0,0.7847,0.7906,0.7975,0.8059,0.8082,0.8117,0.8186,0.8232,0.8301,0.8333,0.8381,0.8425,0.8478,0.8491,0.8564,0.8552,0.8585,0.8617,0.8619,0.8628,0.8641,0.863,0.8618,0.8619,0.8635,0.8635,0.8634,0,0.7808,0.7905,0.7959,0.7992,0.8091,0.8115,0.8157,0.8226,0.8264,0.8324,0.835,0.8415,0.8451,0.8501,0.8562,0.8566,0.8629,0.8647,0.8658,0.8656,0.8669,0.8667,0.8662,0.8688,0.8688,0.8688,0.8688,0,0.781,0.785,0.7943,0.7976,0.8023,0.8089,0.8134,0.8181,0.8242,0.8285,0.8339,0.8378,0.8456,0.8505,0.8553,0.8606,0.8622,0.865,0.8663,0.8646,0.8642,0.8668,0.8669,0.8689,0.8689,0.8689,0.8689,0,0.7775,0.7839,0.7902,0.7991,0.8014,0.8044,0.8121,0.8155,0.8205,0.8259,0.8276,0.8354,0.8415,0.848,0.8563,0.8595,0.8646,0.8664,0.8623,0.863,0.8637,0.8635,0.8649,0.8654,0.8676,0.8675,0.8675,0,0.7773,0.7805,0.7897,0.793,0.7971,0.8024,0.8063,0.813,0.8168,0.8249,0.8274,0.8338,0.8394,0.8488,0.8553,0.8616,0.8636,0.8636,0.8646,0.8628,0.8636,0.8634,0.8637,0.8633,0.8632,0.8632,0.8631,0,0.7761,0.7791,0.7846,0.7912,0.7957,0.8012,0.8069,0.8093,0.8171,0.8212,0.8274,0.8317,0.8402,0.8465,0.8537,0.8581,0.8619,0.8628,0.8634,0.8617,0.8592,0.8606,0.8615,0.8627,0.8628,0.8628,0.8628,0.8628,0.7743,0.7774,0.7844,0.7903,0.7953,0.8005,0.8042,0.8096,0.815,0.8223,0.826,0.8322,0.839,0.849,0.8533,0.8583,0.8595,0.8603,0.8606,0.8607,0.8602,0.8584,0.8597,0.8597,0.8597,0.8597,0.8597,0,0.7735,0.7783,0.7836,0.7914,0.7961,0.7992,0.8057,0.8094,0.8148,0.8208,0.8261,0.8333,0.8396,0.8464,0.8531,0.8558,0.8577,0.8573,0.8572,0.8581,0.8588,0.8577,0.8556,0.8556,0.8556,0.8556,0.8556,0.8556,0.7736,0.7791,0.7829,0.7909,0.7957,0.8018,0.8053,0.8101,0.8149,0.8227,0.8279,0.8323,0.8387,0.8459,0.8517,0.8536,0.8558,0.8549,0.8573,0.8578,0.8581,0.8584,0.8574,0.8553,0.8553,0.8562,0.8562,0.8562]},{"header":{"parameterUnit":"m.s-1","parameterCategory":1,"la1":30.2991,"la2":30.254,"lo1":-89.0895,"lo2":-89.0444,"dy":0.0017,"dx":0.0017,"nx":28,"ny":28,"refTime":"2025-06-14T09:00:00:Z","depth":0,"parameterNumber":3,"parameterNumberName":"V-component_of_WINDS"},"data":[0,0,0,0,0,0,0,0,0,0,0,0,0,0,0,0,0,0,0,0,0,0,0,0,0,0,0,0,0,0,0,0,0,0,0,0,0,0,0,0,0,0,0,0,0,0,0,0,0,0,0,0,0,0,0,0,0,0,4.3207,4.3206,0,4.3123,4.3122,4.3121,4.3072,4.3072,4.3072,4.3072,4.298,4.2978,4.2976,0,0,0,0,0,0,0,0,0,0,0,0,0,4.3318,4.3317,4.3207,4.3206,4.3205,4.3123,4.3122,4.3121,4.3073,4.3072,4.3072,4.3072,4.2981,4.2978,4.2976,0,0,0,0,0,0,0,0,0,0,0,0,0,4.3256,4.3316,4.3207,4.3171,4.3167,4.3124,4.3122,4.3121,4.3073,4.3072,4.3072,4.3072,4.2982,4.2979,4.2975,4.2959,0,0,4.2965,4.2963,0,0,0,0,0,0,0,0,4.3259,4.3252,4.3177,4.3173,4.3169,4.3108,4.3128,4.3066,4.3073,4.3108,4.3072,4.3072,4.3023,4.3016,4.3,4.2955,4.2951,4.2964,4.2962,4.2961,4.296,0,0,0,0,0,0,0,4.3264,4.3255,4.3173,4.3176,4.3171,4.3157,4.3148,4.3116,4.3068,4.3105,4.3101,4.3092,4.302,4.3004,4.2998,4.295,4.2964,4.2961,4.2959,4.2958,4.2887,4.2887,0,0,0,0,0,0,4.3275,4.3259,4.3176,4.3171,4.3215,4.3155,4.3145,4.3128,4.3068,4.3059,4.3093,4.309,4.301,4.3002,4.2995,4.2972,4.2961,4.2958,4.2956,4.2887,4.2887,4.2887,0,0,0,0,0,0,4.3277,4.3268,4.3179,4.3214,4.3202,4.3154,4.3135,4.3126,4.311,4.3059,4.3049,4.3086,4.3009,4.2999,4.2969,4.2968,4.2956,4.2953,4.2887,4.2887,4.2887,4.2928,0,0,0,0,0,0,4.3281,4.3269,4.3264,4.3214,4.32,4.3157,4.3135,4.3125,4.3105,4.3101,4.3049,4.304,4.3008,4.2974,4.2966,4.2963,4.295,4.2886,4.2887,4.2887,4.2926,4.2929,4.2932,0,0,0,0,0,4.3285,4.3277,4.3264,4.3254,4.3193,4.3157,4.3149,4.3114,4.3105,4.3099,4.3066,4.3042,4.297,4.2972,4.2961,4.2958,4.2886,4.2887,4.2887,4.2925,4.2929,4.2932,0,0,0,0,0,0,4.3326,4.327,4.3255,4.3231,4.32,4.3149,4.314,4.3119,4.3087,4.3085,4.3041,4.303,4.3003,4.2977,4.298,4.294,4.2925,4.2924,4.2958,4.2961,4.2964,4.297,4.2948,0,0,0,0,0,4.3333,4.331,4.3262,4.3245,4.3231,4.3188,4.3171,4.3147,4.3112,4.3098,4.3062,4.3027,4.2997,4.2977,4.2946,4.2922,4.291,4.2915,4.2918,4.2921,4.2919,4.2905,4.2906,4.2888,4.2888,4.2888,0,0,4.3345,4.3312,4.33,4.3253,4.3226,4.3202,4.3177,4.3153,4.3134,4.3093,4.3063,4.3036,4.2994,4.2967,4.2953,4.2944,4.2922,4.2921,4.2924,4.2921,4.2905,4.2907,4.2909,4.2889,4.2889,4.2889,0,0,4.3356,4.3329,4.3313,4.3287,4.3247,4.3219,4.3215,4.3168,4.3149,4.3119,4.3087,4.3063,4.3012,4.2983,4.2962,4.2963,4.294,4.2954,4.2969,4.2955,4.2956,4.2957,4.2958,4.2958,4.2953,4.2953,4.2953,0,4.3377,4.3342,4.3307,4.3285,4.3265,4.3229,4.3211,4.3187,4.3137,4.3123,4.3115,4.305,4.3019,4.2985,4.2985,4.2969,4.2962,4.2959,4.2959,4.296,4.296,4.296,4.296,4.2955,4.2955,4.2955,4.2954,0,4.3368,4.3344,4.3336,4.3292,4.3271,4.3251,4.3212,4.3194,4.3172,4.3144,4.3113,4.3075,4.3036,4.3026,4.3003,4.2988,4.2984,4.2968,4.2953,4.2965,4.2964,4.2963,4.2958,4.2957,4.2957,4.2956,0,0,4.3402,4.3341,4.3338,4.3318,4.3271,4.3251,4.3229,4.3193,4.3179,4.3146,4.3125,4.3083,4.3068,4.3044,4.3018,4.3006,4.3009,4.2991,4.2989,4.2996,4.299,4.3003,4.3003,4.2994,4.2994,4.2993,4.2994,0,4.3406,4.3368,4.3336,4.3309,4.3286,4.3252,4.3232,4.3201,4.3174,4.3149,4.3119,4.309,4.3073,4.3058,4.3045,4.3012,4.3007,4.3011,4.2973,4.2972,4.2985,4.3002,4.3015,4.3017,4.2993,4.2993,4.2993,0,4.3406,4.3378,4.3348,4.3305,4.3294,4.3278,4.3242,4.3219,4.3182,4.3164,4.3138,4.3111,4.3084,4.3072,4.3035,4.3038,4.302,4.3002,4.3001,4.2996,4.2983,4.2998,4.3017,4.3018,4.2992,4.2992,4.2992,0,4.3434,4.3388,4.3364,4.3348,4.3297,4.3286,4.3264,4.3227,4.3207,4.3175,4.3162,4.3127,4.3107,4.308,4.3044,4.3038,4.301,4.2994,4.2993,4.2994,4.2988,4.2989,4.3005,4.2977,4.2977,4.2977,4.2977,0,4.3442,4.3425,4.3376,4.3362,4.3342,4.3305,4.3286,4.326,4.3228,4.3207,4.3174,4.3154,4.3108,4.3082,4.3053,4.3027,4.3018,4.3001,4.2994,4.3004,4.3006,4.2992,4.2991,4.2977,4.2977,4.2977,4.2977,0,4.3469,4.3436,4.3409,4.3363,4.3351,4.3338,4.3298,4.3282,4.3254,4.3228,4.322,4.3175,4.3143,4.3105,4.306,4.304,4.3016,4.3005,4.303,4.3025,4.3026,4.3026,4.3033,4.3032,4.3005,4.3005,4.3006,0,4.3477,4.3464,4.3417,4.3402,4.3382,4.3357,4.3337,4.33,4.3281,4.3238,4.3227,4.3193,4.3165,4.3115,4.3077,4.3043,4.303,4.3035,4.3024,4.3036,4.303,4.3032,4.303,4.3038,4.3038,4.3039,4.3039,0,4.3493,4.3478,4.3452,4.3421,4.34,4.3373,4.3344,4.3333,4.3289,4.3269,4.3238,4.3215,4.3171,4.3137,4.3098,4.3072,4.3048,4.3043,4.304,4.3051,4.3066,4.3058,4.3037,4.3042,4.3042,4.3042,4.3042,4.3041,4.3511,4.3498,4.3464,4.3436,4.3411,4.3386,4.3369,4.334,4.3314,4.3276,4.3255,4.3224,4.3187,4.3132,4.3108,4.3082,4.3073,4.3069,4.3069,4.3068,4.3072,4.3071,4.3074,4.3074,4.3074,4.3074,4.3073,0,4.3526,4.3503,4.3478,4.344,4.3419,4.34,4.3368,4.335,4.3324,4.3292,4.3265,4.3229,4.3196,4.3157,4.3122,4.3108,4.3096,4.31,4.3101,4.3095,4.3081,4.3087,4.3111,4.3111,4.3111,4.3111,4.3111,4.3111,4.3531,4.3508,4.3489,4.3453,4.3429,4.3401,4.3384,4.3359,4.3334,4.3296,4.327,4.3245,4.321,4.3172,4.3141,4.313,4.3118,4.3126,4.3111,4.3099,4.3096,4.3093,4.3098,4.3123,4.3123,4.3127,4.3127,4.3127]}]]